Time,TemperatureF,DewpointF,PressureIn,WindDirection,WindDirectionDegrees,WindSpeedMPH,WindSpeedGustMPH,Humidity,HourlyPrecipIn,Conditions,Clouds,dailyrainin,SoftwareType,DateUTC
2013-01-25 00:01:00,50.0,50.0,30.16,East,81,0.0,0.0,100,0.00,,,0.07,,2013-01-25 08:01:00,
2013-01-25 00:11:00,50.0,50.0,30.16,East,81,0.0,0.0,100,0.00,,,0.07,,2013-01-25 08:11:00,
2013-01-25 00:21:00,50.0,50.0,30.16,East,81,0.0,0.0,100,0.00,,,0.07,,2013-01-25 08:21:00,
2013-01-25 00:31:00,50.0,50.0,30.15,East,81,0.0,0.0,100,0.00,,,0.07,,2013-01-25 08:31:00,
2013-01-25 00:41:00,50.0,50.0,30.15,East,81,0.0,0.0,100,0.00,,,0.07,,2013-01-25 08:41:00,
2013-01-25 00:52:00,50.0,50.0,30.15,East,81,0.0,0.0,100,0.00,,,0.06,,2013-01-25 08:52:00,
2013-01-25 01:01:00,51.0,51.0,30.15,East,81,0.0,0.0,100,0.00,,,0.06,,2013-01-25 09:01:00,
2013-01-25 01:11:00,51.0,51.0,30.15,East,81,0.0,0.0,100,0.00,,,0.06,,2013-01-25 09:11:00,
2013-01-25 01:21:00,51.0,51.0,30.15,East,81,0.0,0.0,100,0.00,,,0.06,,2013-01-25 09:21:00,
2013-01-25 01:31:00,50.0,50.0,30.14,ESE,106,1.0,5.0,100,0.00,,,0.06,,2013-01-25 09:31:00,
2013-01-25 01:41:00,50.0,50.0,30.14,ESE,106,1.0,5.0,100,0.00,,,0.06,,2013-01-25 09:41:00,
2013-01-25 01:51:00,50.0,50.0,30.14,ESE,107,0.0,0.0,100,0.00,,,0.06,,2013-01-25 09:51:00,
2013-01-25 02:01:00,50.0,50.0,30.14,East,86,2.0,5.0,100,0.00,,,0.06,,2013-01-25 10:01:00,
2013-01-25 02:11:00,50.0,50.0,30.15,NE,53,0.0,0.0,100,0.00,,,0.06,,2013-01-25 10:11:00,
2013-01-25 02:21:00,50.0,50.0,30.15,NE,53,0.0,0.0,100,0.00,,,0.06,,2013-01-25 10:21:00,
2013-01-25 02:31:00,50.0,50.0,30.15,NE,53,0.0,0.0,100,0.00,,,0.06,,2013-01-25 10:31:00,
2013-01-25 02:41:00,50.0,50.0,30.15,NE,53,0.0,0.0,100,0.00,,,0.06,,2013-01-25 10:41:00,
2013-01-25 02:51:00,50.0,50.0,30.15,NE,53,0.0,0.0,100,0.01,,,0.07,,2013-01-25 10:51:00,
2013-01-25 03:02:00,50.0,50.0,30.15,NE,53,0.0,0.0,100,0.01,,,0.07,,2013-01-25 11:02:00,
2013-01-25 03:11:00,50.0,50.0,30.15,NE,53,0.0,0.0,100,0.01,,,0.07,,2013-01-25 11:11:00,
2013-01-25 03:21:00,50.0,50.0,30.14,NE,53,0.0,0.0,100,0.01,,,0.07,,2013-01-25 11:21:00,
2013-01-25 03:31:00,50.0,50.0,30.14,NE,53,0.0,0.0,100,0.01,,,0.07,,2013-01-25 11:31:00,
2013-01-25 03:41:00,50.0,50.0,30.14,NE,53,0.0,0.0,100,0.01,,,0.07,,2013-01-25 11:41:00,
2013-01-25 03:52:00,50.0,50.0,30.14,NE,53,0.0,0.0,100,0.00,,,0.07,,2013-01-25 11:52:00,
2013-01-25 04:01:00,50.0,50.0,30.13,NE,53,0.0,0.0,100,0.00,,,0.07,,2013-01-25 12:01:00,
2013-01-25 04:11:00,50.0,50.0,30.13,NE,53,0.0,0.0,100,0.00,,,0.07,,2013-01-25 12:11:00,
2013-01-25 04:21:00,50.0,50.0,30.13,NE,53,0.0,0.0,100,0.00,,,0.07,,2013-01-25 12:21:00,
2013-01-25 04:31:00,50.0,50.0,30.12,NE,53,0.0,0.0,100,0.00,,,0.07,,2013-01-25 12:31:00,
2013-01-25 04:41:00,50.0,50.0,30.12,NE,53,0.0,0.0,100,0.00,,,0.07,,2013-01-25 12:41:00,
2013-01-25 04:53:00,50.0,50.0,30.12,ESE,114,3.0,4.0,100,0.00,,,0.07,,2013-01-25 12:53:00,
2013-01-25 05:01:00,50.0,50.0,30.12,ENE,70,0.0,1.0,100,0.00,,,0.07,,2013-01-25 13:01:00,
2013-01-25 05:11:00,50.0,50.0,30.12,ENE,70,0.0,1.0,100,0.00,,,0.07,,2013-01-25 13:11:00,
2013-01-25 05:21:00,50.0,50.0,30.11,ENE,70,0.0,0.0,100,0.00,,,0.07,,2013-01-25 13:21:00,
2013-01-25 05:31:00,50.0,50.0,30.11,ENE,70,0.0,0.0,100,0.00,,,0.07,,2013-01-25 13:31:00,
2013-01-25 05:42:00,50.0,50.0,30.11,ENE,70,0.0,0.0,100,0.00,,,0.07,,2013-01-25 13:42:00,
2013-01-25 05:52:00,49.0,49.0,30.12,ENE,70,0.0,0.0,100,0.00,,,0.07,,2013-01-25 13:52:00,
2013-01-25 06:01:00,49.0,49.0,30.12,ENE,70,0.0,0.0,100,0.00,,,0.07,,2013-01-25 14:01:00,
2013-01-25 06:11:00,49.0,49.0,30.12,ENE,70,0.0,0.0,100,0.00,,,0.07,,2013-01-25 14:11:00,
2013-01-25 06:22:00,49.0,49.0,30.13,ENE,70,0.0,0.0,100,0.00,,,0.07,,2013-01-25 14:22:00,
2013-01-25 06:32:00,49.0,49.0,30.13,ENE,70,0.0,0.0,100,0.00,,,0.07,,2013-01-25 14:32:00,
2013-01-25 06:41:00,49.0,49.0,30.13,ENE,70,0.0,0.0,100,0.00,,,0.07,,2013-01-25 14:41:00,
2013-01-25 06:53:00,49.0,49.0,30.13,ENE,70,0.0,0.0,100,0.00,,,0.07,,2013-01-25 14:53:00,
2013-01-25 07:01:00,49.0,49.0,30.13,ENE,70,0.0,0.0,100,0.00,,,0.07,,2013-01-25 15:01:00,
2013-01-25 07:11:00,49.0,49.0,30.13,ENE,70,0.0,0.0,100,0.00,,,0.07,,2013-01-25 15:11:00,
2013-01-25 07:21:00,49.0,49.0,30.12,ENE,70,0.0,0.0,100,0.00,,,0.07,,2013-01-25 15:21:00,
2013-01-25 07:31:00,49.0,49.0,30.12,ENE,70,0.0,0.0,100,0.00,,,0.07,,2013-01-25 15:31:00,
2013-01-25 07:41:00,49.0,49.0,30.12,ENE,70,0.0,0.0,100,0.00,,,0.07,,2013-01-25 15:41:00,
2013-01-25 07:52:00,50.0,50.0,30.13,ENE,70,0.0,0.0,100,0.00,,,0.07,,2013-01-25 15:52:00,
2013-01-25 08:01:00,50.0,50.0,30.13,ENE,70,0.0,0.0,100,0.00,,,0.07,,2013-01-25 16:01:00,
2013-01-25 08:11:00,50.0,50.0,30.13,ENE,70,0.0,0.0,100,0.00,,,0.07,,2013-01-25 16:11:00,
2013-01-25 08:21:00,50.0,50.0,30.13,ENE,70,0.0,0.0,100,0.00,,,0.07,,2013-01-25 16:21:00,
2013-01-25 08:31:00,50.0,50.0,30.13,ENE,70,0.0,0.0,100,0.00,,,0.07,,2013-01-25 16:31:00,
2013-01-25 08:42:00,50.0,50.0,30.13,ENE,70,0.0,0.0,100,0.00,,,0.07,,2013-01-25 16:42:00,
2013-01-25 08:51:00,50.0,50.0,30.13,ENE,70,0.0,0.0,100,0.00,,,0.07,,2013-01-25 16:51:00,
2013-01-25 09:01:00,52.0,52.0,30.12,ENE,70,0.0,0.0,100,0.00,,,0.07,,2013-01-25 17:01:00,
2013-01-25 09:11:00,52.0,52.0,30.12,ENE,70,0.0,0.0,100,0.00,,,0.07,,2013-01-25 17:11:00,
2013-01-25 09:21:00,52.0,52.0,30.13,ENE,70,0.0,0.0,100,0.00,,,0.07,,2013-01-25 17:21:00,
2013-01-25 09:32:00,52.0,52.0,30.13,WSW,249,1.0,4.0,100,0.00,,,0.07,,2013-01-25 17:32:00,
2013-01-25 09:42:00,52.0,52.0,30.13,WSW,249,1.0,4.0,100,0.00,,,0.07,,2013-01-25 17:42:00,
2013-01-25 09:52:00,52.0,52.0,30.14,WSW,248,0.0,0.0,100,0.00,,,0.07,,2013-01-25 17:52:00,
2013-01-25 10:02:00,52.0,52.0,30.15,WSW,248,0.0,0.0,100,0.00,,,0.07,,2013-01-25 18:02:00,
2013-01-25 10:11:00,52.0,52.0,30.15,WSW,248,0.0,0.0,100,0.00,,,0.07,,2013-01-25 18:11:00,
2013-01-25 10:22:00,53.0,53.0,30.15,WSW,248,0.0,0.0,100,0.00,,,0.07,,2013-01-25 18:22:00,
2013-01-25 10:32:00,54.0,54.0,30.14,East,93,2.0,3.0,100,0.00,,,0.07,,2013-01-25 18:32:00,
2013-01-25 10:41:00,54.0,54.0,30.14,East,93,2.0,3.0,100,0.00,,,0.07,,2013-01-25 18:41:00,
2013-01-25 10:51:00,55.0,55.0,30.14,East,98,0.0,2.0,100,0.00,,,0.07,,2013-01-25 18:51:00,
2013-01-25 11:02:00,58.0,57.0,30.14,ENE,68,1.0,2.0,98,0.00,,,0.07,,2013-01-25 19:02:00,
2013-01-25 11:11:00,58.0,57.0,30.14,ENE,68,1.0,2.0,98,0.00,,,0.07,,2013-01-25 19:11:00,
2013-01-25 11:21:00,58.0,57.0,30.14,NW,314,4.0,5.0,95,0.00,,,0.07,,2013-01-25 19:21:00,
2013-01-25 11:32:00,59.0,57.0,30.13,WNW,303,3.0,6.0,92,0.00,,,0.07,,2013-01-25 19:32:00,
2013-01-25 11:41:00,59.0,57.0,30.13,WNW,303,3.0,6.0,92,0.00,,,0.07,,2013-01-25 19:41:00,
2013-01-25 11:52:00,61.0,56.0,30.12,SSE,163,0.0,5.0,85,0.00,,,0.07,,2013-01-25 19:52:00,
2013-01-25 12:01:00,62.0,57.0,30.11,SSW,208,4.0,6.0,83,0.00,,,0.07,,2013-01-25 20:01:00,
2013-01-25 12:11:00,62.0,57.0,30.11,SSW,208,4.0,6.0,83,0.00,,,0.07,,2013-01-25 20:11:00,
2013-01-25 12:21:00,61.0,55.0,30.11,NNW,334,4.0,5.0,80,0.00,,,0.07,,2013-01-25 20:21:00,
2013-01-25 12:31:00,63.0,56.0,30.11,NW,311,2.0,6.0,78,0.00,,,0.07,,2013-01-25 20:31:00,
2013-01-25 12:41:00,63.0,56.0,30.11,NW,311,2.0,6.0,78,0.00,,,0.07,,2013-01-25 20:41:00,
2013-01-25 12:52:00,64.0,56.0,30.10,NNW,328,4.0,9.0,76,0.00,,,0.07,,2013-01-25 20:52:00,
2013-01-25 13:01:00,63.0,55.0,30.09,NNW,332,3.0,6.0,76,0.00,,,0.07,,2013-01-25 21:01:00,
2013-01-25 13:11:00,63.0,55.0,30.09,NNW,332,3.0,6.0,76,0.00,,,0.07,,2013-01-25 21:11:00,
2013-01-25 13:21:00,65.0,57.0,30.09,WNW,298,6.0,11.0,76,0.00,,,0.07,,2013-01-25 21:21:00,
2013-01-25 13:32:00,65.0,55.0,30.09,NNW,331,5.0,8.0,69,0.00,,,0.07,,2013-01-25 21:32:00,
2013-01-25 13:42:00,65.0,55.0,30.09,NNW,331,5.0,8.0,69,0.00,,,0.07,,2013-01-25 21:42:00,
2013-01-25 13:52:00,65.0,55.0,30.08,WNW,290,4.0,7.0,71,0.00,,,0.07,,2013-01-25 21:52:00,
2013-01-25 14:01:00,65.0,55.0,30.08,SSW,204,0.0,6.0,70,0.00,,,0.07,,2013-01-25 22:01:00,
2013-01-25 14:11:00,67.0,55.0,30.08,WNW,293,4.0,8.0,66,0.00,,,0.07,,2013-01-25 22:11:00,
2013-01-25 14:21:00,67.0,55.0,30.08,WNW,293,4.0,8.0,66,0.00,,,0.07,,2013-01-25 22:21:00,
2013-01-25 14:31:00,66.0,54.0,30.07,NW,307,5.0,11.0,66,0.00,,,0.07,,2013-01-25 22:31:00,
2013-01-25 14:41:00,66.0,54.0,30.07,NW,307,5.0,11.0,66,0.00,,,0.07,,2013-01-25 22:41:00,
2013-01-25 14:52:00,66.0,55.0,30.07,NW,319,6.0,9.0,67,0.00,,,0.07,,2013-01-25 22:52:00,
2013-01-25 15:01:00,66.0,55.0,30.07,NW,307,6.0,9.0,68,0.00,,,0.07,,2013-01-25 23:01:00,
2013-01-25 15:11:00,66.0,55.0,30.07,NW,307,6.0,9.0,68,0.00,,,0.07,,2013-01-25 23:11:00,
2013-01-25 15:21:00,66.0,55.0,30.07,NW,314,6.0,9.0,67,0.00,,,0.07,,2013-01-25 23:21:00,
2013-01-25 15:32:00,63.0,53.0,30.06,NW,306,6.0,10.0,70,0.00,,,0.06,,2013-01-25 23:32:00,
2013-01-25 15:41:00,63.0,53.0,30.06,NW,306,6.0,10.0,70,0.00,,,0.06,,2013-01-25 23:41:00,
2013-01-25 15:52:00,63.0,54.0,30.06,WNW,300,5.0,9.0,73,0.00,,,0.06,,2013-01-25 23:52:00,
2013-01-25 16:01:00,62.0,54.0,30.05,NW,309,4.0,9.0,76,0.00,,,0.06,,2013-01-26 00:01:00,
2013-01-25 16:11:00,62.0,54.0,30.05,NW,309,4.0,9.0,76,0.00,,,0.06,,2013-01-26 00:11:00,
2013-01-25 16:22:00,62.0,55.0,30.05,WNW,302,3.0,7.0,77,0.00,,,0.06,,2013-01-26 00:22:00,
2013-01-25 16:32:00,62.0,55.0,30.05,WNW,303,5.0,9.0,77,0.00,,,0.06,,2013-01-26 00:32:00,
2013-01-25 16:41:00,62.0,55.0,30.05,WNW,303,5.0,9.0,77,0.00,,,0.06,,2013-01-26 00:41:00,
2013-01-25 16:52:00,61.0,54.0,30.04,NW,324,4.0,7.0,78,0.00,,,0.05,,2013-01-26 00:52:00,
2013-01-25 17:01:00,61.0,55.0,30.04,East,90,3.0,8.0,80,0.00,,,0.04,,2013-01-26 01:01:00,
2013-01-25 17:11:00,61.0,55.0,30.04,East,90,3.0,8.0,80,0.00,,,0.04,,2013-01-26 01:11:00,
2013-01-25 17:22:00,60.0,54.0,30.04,East,95,2.0,8.0,81,0.00,,,0.04,,2013-01-26 01:22:00,
2013-01-25 17:31:00,59.0,54.0,30.04,NW,316,1.0,5.0,83,0.00,,,0.04,,2013-01-26 01:31:00,
2013-01-25 17:41:00,59.0,54.0,30.04,NW,316,1.0,5.0,83,0.00,,,0.04,,2013-01-26 01:41:00,
2013-01-25 17:52:00,58.0,53.0,30.04,NW,311,0.0,0.0,84,0.00,,,0.03,,2013-01-26 01:52:00,
2013-01-25 18:01:00,57.0,53.0,30.05,NW,311,0.0,0.0,86,0.00,,,0.03,,2013-01-26 02:01:00,
2013-01-25 18:11:00,57.0,53.0,30.05,NW,311,0.0,0.0,86,0.00,,,0.03,,2013-01-26 02:11:00,
2013-01-25 18:21:00,55.0,52.0,30.04,NW,311,0.0,0.0,90,0.00,,,0.03,,2013-01-26 02:21:00,
2013-01-25 18:32:00,55.0,52.0,30.05,NW,311,0.0,0.0,91,0.00,,,0.03,,2013-01-26 02:32:00,
2013-01-25 18:41:00,55.0,52.0,30.05,NW,311,0.0,0.0,91,0.00,,,0.03,,2013-01-26 02:41:00,
2013-01-25 18:52:00,54.0,52.0,30.05,NW,311,0.0,0.0,92,0.00,,,0.03,,2013-01-26 02:52:00,
2013-01-25 19:01:00,53.0,51.0,30.05,ESE,102,2.0,3.0,94,0.00,,,0.03,,2013-01-26 03:01:00,
2013-01-25 19:11:00,53.0,51.0,30.05,ESE,102,2.0,3.0,94,0.00,,,0.03,,2013-01-26 03:11:00,
2013-01-25 19:21:00,53.0,52.0,30.05,East,80,0.0,4.0,95,0.00,,,0.03,,2013-01-26 03:21:00,
2013-01-25 19:31:00,53.0,52.0,30.03,ESE,115,0.0,2.0,95,0.00,,,0.03,,2013-01-26 03:31:00,
2013-01-25 19:42:00,53.0,52.0,30.03,ESE,115,0.0,2.0,95,0.00,,,0.03,,2013-01-26 03:42:00,
2013-01-25 19:52:00,53.0,52.0,30.03,ESE,115,0.0,0.0,95,0.00,,,0.02,,2013-01-26 03:52:00,
2013-01-25 20:01:00,53.0,52.0,30.03,ESE,115,0.0,0.0,95,0.00,,,0.01,,2013-01-26 04:01:00,
2013-01-25 20:12:00,53.0,52.0,30.03,ESE,115,0.0,0.0,95,0.00,,,0.01,,2013-01-26 04:12:00,
2013-01-25 20:21:00,52.0,51.0,30.03,ESE,115,0.0,0.0,95,0.00,,,0.01,,2013-01-26 04:21:00,
2013-01-25 20:32:00,52.0,51.0,30.03,ESE,115,0.0,0.0,96,0.00,,,0.01,,2013-01-26 04:32:00,
2013-01-25 20:42:00,52.0,51.0,30.03,ESE,115,0.0,0.0,96,0.00,,,0.01,,2013-01-26 04:42:00,
2013-01-25 20:52:00,52.0,51.0,30.04,ESE,115,0.0,0.0,97,0.00,,,0.01,,2013-01-26 04:52:00,
2013-01-25 21:01:00,52.0,51.0,30.05,ESE,115,0.0,0.0,98,0.00,,,0.01,,2013-01-26 05:01:00,
2013-01-25 21:12:00,52.0,51.0,30.05,ESE,115,0.0,0.0,98,0.00,,,0.01,,2013-01-26 05:12:00,
2013-01-25 21:22:00,52.0,51.0,30.04,ESE,115,0.0,0.0,97,0.00,,,0.01,,2013-01-26 05:22:00,
2013-01-25 21:32:00,52.0,51.0,30.04,ESE,115,0.0,0.0,97,0.00,,,0.01,,2013-01-26 05:32:00,
2013-01-25 21:41:00,52.0,51.0,30.04,ESE,115,0.0,0.0,97,0.00,,,0.01,,2013-01-26 05:41:00,
2013-01-25 21:52:00,51.0,50.0,30.03,ESE,115,0.0,0.0,97,0.00,,,0.01,,2013-01-26 05:52:00,
2013-01-25 22:02:00,51.0,50.0,30.03,ESE,115,0.0,0.0,98,0.00,,,0.01,,2013-01-26 06:02:00,
2013-01-25 22:11:00,51.0,50.0,30.03,ESE,115,0.0,0.0,98,0.00,,,0.01,,2013-01-26 06:11:00,
2013-01-25 22:21:00,51.0,50.0,30.04,ENE,60,0.0,2.0,98,0.00,,,0.01,,2013-01-26 06:21:00,
2013-01-25 22:31:00,51.0,50.0,30.04,NNW,328,0.0,3.0,98,0.00,,,0.01,,2013-01-26 06:31:00,
2013-01-25 22:41:00,51.0,50.0,30.04,NNW,328,0.0,3.0,98,0.00,,,0.01,,2013-01-26 06:41:00,
2013-01-25 22:52:00,50.0,49.0,30.04,NNW,328,0.0,0.0,98,0.00,,,0.01,,2013-01-26 06:52:00,
2013-01-25 23:01:00,50.0,49.0,30.04,NNW,328,0.0,0.0,98,0.00,,,0.01,,2013-01-26 07:01:00,
2013-01-25 23:11:00,50.0,49.0,30.04,NNW,328,0.0,0.0,98,0.00,,,0.01,,2013-01-26 07:11:00,
2013-01-25 23:21:00,50.0,49.0,30.04,NNW,328,0.0,0.0,98,0.00,,,0.01,,2013-01-26 07:21:00,
2013-01-25 23:32:00,49.0,49.0,30.04,NNW,328,0.0,0.0,99,0.00,,,0.01,,2013-01-26 07:32:00,
2013-01-25 23:41:00,49.0,49.0,30.04,NNW,328,0.0,0.0,99,0.00,,,0.01,,2013-01-26 07:41:00,
2013-01-25 23:51:00,49.0,49.0,30.04,NNW,328,0.0,0.0,99,0.00,,,0.01,,2013-01-26 07:51:00,